Preview of NWS' New Version of Forecast
This preview is not operational and should not be used for support decisions.

Regional Weather Roundup (RWR)

Issued by National Weather Service (NWS)

                            
000
ASUS45 KBOI 202110
RWRID 

IDAHO REGIONAL WEATHER ROUNDUP
NATIONAL WEATHER SERVICE BOISE ID
300 PM MDT FRI SEP 20 2019

NOTE: "FAIR" INDICATES FEW OR NO CLOUDS BELOW 12000 FEET
WITH NO SIGNIFICANT WEATHER AND/OR OBSTRUCTIONS TO VISIBILITY

IDZ012-014-202200-
SOUTHWEST IDAHO

  
CITY           SKY/WX    TMP DP  RH WIND       PRES   REMARKS
BOISE          MOSUNNY   67  41  38 W23G29    29.96S                  
CALDWELL       MOSUNNY   68  42  38 W18G24    29.97S                  
MOUNTAIN HOME  MOSUNNY   67  38  35 NW23G35   29.95S                  
$$

IDZ016-017-202200-
SOUTHCENTRAL IDAHO

  
CITY           SKY/WX    TMP DP  RH WIND       PRES   REMARKS
BURLEY         CLOUDY    55  43  63 W18       29.97S                  
JEROME         PTSUNNY   60  42  51 W15       29.96F                  
TWIN FALLS     CLOUDY    58  40  51 W17       29.98S                  
$$

IDZ019>023-202200-
SOUTHEAST IDAHO

  
CITY           SKY/WX    TMP DP  RH WIND       PRES   REMARKS
IDAHO FALLS    LGT RAIN  48  43  82 SW13      29.97R                  
POCATELLO      PTSUNNY   55  41  59 W18G25    29.99R                  
REXBURG        RAIN      46  43  89 CALM      29.97R FOG              
$$

IDZ006-010-011-018-031-032-202200-
CENTRAL IDAHO MOUNTAINS

  
CITY           SKY/WX    TMP DP  RH WIND       PRES   REMARKS
MCCALL         CLOUDY    53  34  48 N8        30.01R                  
HAILEY         MOSUNNY   52  46  82 SE6       29.98R                  
STANLEY          N/A     51  36  56 CALM      29.99S                  
SALMON         CLOUDY    57  40  52 SW5       29.95S                  
CHALLIS        LGT RAIN  52  39  61 CALM      29.96R                  
$$

IDZ002-004-006-007-026-202200-
NORTHERN IDAHO

  
CITY           SKY/WX    TMP DP  RH WIND       PRES   REMARKS
LEWISTON       CLOUDY    67  46  47 MISG      29.99S                  
LOWELL           N/A     62  52  69 CALM      30.00F                  
COEUR D'ALENE  PTSUNNY   59  49  69 SW7       30.00S                  
MULLAN PASS    LGT RAIN  41  39  93 VRB3      30.04R VSB 1/4          
$$